STARLINK-3933 (52538 NORAD) Tracking and Keplerian Element Data
This shows tracking and keplerian element data for the satellite.
Feedback or suggestion? Click here.
Element | Value |
Catalog | 52538 |
Name | STARLINK-3933 |
Epoch Orbit | 130 |
Epoch Day | 228.91667824 |
Epoch Year | 2022 |
RAAN | 208.5205 |
Inclination | 53.2161 |
Eccentricity | 0.000213 |
Argument of Perigee | 56.67 |
Mean Anonmoly | 181.7819 |
Mean Motion | 15.08819764 |
Decay Rate | 0.00029059 |
L1 | 1 52538U 22051F 22228.91667824 .00029059 00000+0 18374-2 0 9991 |
L2 | 2 52538 53.2161 208.5205 0002130 56.6700 181.7819 15.08819764 1303 |
Live tracking and technical data element details for STARLINK-3933 (NORAD 52538). STARLINK-3933 can be tracked NOW for your location showing map with azimuth and elevation plus other details from your city location.
Track the satellite on the map from your city or location and see movement details for azimuth, elevation, latitude, longitude, range, height, and movement on the map or in text.
IsCatalogInMostPopularTable: catalog: 52538, numindb: 7
Update: records affected: 1
GetName: 52538 STARLINK-3933
Hit Count: updated at: Thu, 18 Aug 2022 20:38:23 GMT